P/2017 S9 ( PanSTARRS )

Japanese version
Home page
Updated on November 23, 2017

---------------------------------------------------------------------

* Profile

Discovery Date September 30, 2017
Magnitude 22.0 mag
Discoverer Pan-STARRS 1 telescope (Haleakala)

* Orbital Elements

Epoch 2017 July 26.0 TT = JDT 2457960.5
T 2017 July 23.54927 TT                                 MPCW
q   2.1951277            (2000.0)            P               Q
n   0.17571407     Peri.  237.88962     +0.89850769     -0.41741878
a   3.1569305      Node   146.21891     +0.43749329     +0.87682125
e   0.3046639      Incl.   14.13815     -0.03582660     +0.23863372
P   5.61
From 38 observations 2017 Sept. 19-Oct. 22, mean residual 0".4.

* Magnitudes Graph

        m1 = 16.5 + 5 log d + 10.0 log r

---------------------------------------------------------------------

The orbital elements are published on M.P.E.C. 2017-V13.
The magnitudes graphs are made with Comet for Windows.

---------------------------------------------------------------------

Copyright(C) Seiichi Yoshida (comet@aerith.net). All rights reserved.